Regional Weather Roundup
Issued by NWS

Home | Current Version | Previous Version | Graphics & Text | Print | Product List | Glossary Off
Versions: 1 2 3 4 5 6 7 8 9 10 11 12 13 14 15 16 17 18 19 20 21 22 23 24 25 26 27 28 29 30 31 32 33 34 35 36 37 38 39 40 41 42 43 44 45 46 47 48 49 50

000
ASUS43 KDMX 010607
RWRIA

WEATHER ROUNDUP FOR IOWA
NATIONAL WEATHER SERVICE DES MOINES IA
100 AM CDT SAT AUG 01 2015

NOTE: "FAIR" INDICATES FEW OR NO CLOUDS BELOW 12,000 FEET WITH NO
SIGNIFICANT WEATHER AND/OR OBSTRUCTIONS TO VISIBILITY.

* - THESE STATIONS ARE NOT NWS STATIONS...THUS NOT UNDER NWS
QUALITY CONTROL.  THEY ALSO DO NOT REPORT WEATHER SUCH
AS PRECIPITATION OR FOG.

IAZ001>003-012>014-020>022-031>034-043>046-010700-
   NORTHWEST IOWA

CITY           SKY/WX    TMP DP  RH WIND       PRES   REMARKS
CARROLL *      MOCLDY    68  64  88 S5        30.09
CHEROKEE *     CLEAR     63  63 100 CALM      30.09S
DENISON *      MOCLDY    70  64  83 CALM      30.08S
LE MARS *      CLEAR     66  66 100 CALM      30.09F
ORANGE CITY *  CLEAR     64  63  94 S5        30.09S
SHELDON *      CLEAR     63  61  94 SW7       30.06F
SIOUX CITY     CLEAR     69  65  86 SE3       30.08S
6HR MIN TEMP:  69; 6HR MAX TEMP:  84;

SPENCER        CLEAR     63  57  81 SW5       30.07S
6HR MIN TEMP:  63; 6HR MAX TEMP:  83;

STORM LAKE *   CLEAR     66  61  82 S8        30.10F
$$

IAZ055>058-069>071-079>083-090>094-010700-
   SOUTHWEST IOWA

CITY           SKY/WX    TMP DP  RH WIND       PRES   REMARKS
ATLANTIC *     PTCLDY    70  68  94 CALM      30.09S
AUDUBON *      CLEAR     68  64  88 CALM      30.10F
CLARINDA *     CLEAR     70  68  94 CALM      30.09F
COUNCIL BLFS * MOCLDY    70  66  88 S5        30.09R
CRESTON *      CLEAR     68  64  88 CALM      30.10F
HARLAN  *      PTCLDY    70  70 100 CALM      30.12S
LAMONI         PTCLDY    69  66  90 NE7       30.08F
6HR MIN TEMP:  69; 6HR MAX TEMP:  76; 6HR PCP:  0.04;

RED OAK *      MOCLDY    68  66  94 CALM      30.09R
SHENANDOAH *   CLEAR     70  68  94 CALM      30.07F
$$

IAZ047>049-059>061-072>074-084-010700-
   CENTRAL IOWA

CITY           SKY/WX    TMP DP  RH WIND       PRES   REMARKS
AMES           CLEAR     63  61  93 CALM      30.07S
6HR MIN TEMP:  63; 6HR MAX TEMP:  82;

ANKENY *       PTCLDY    64  64 100 CALM      30.08S
CHARITON *     CLOUDY    73  68  83 CALM      30.08F
DES MOINES     MOCLDY    74  64  71 CALM      30.07S
6HR MIN TEMP:  74; 6HR MAX TEMP:  86;

GRINNELL*      CLEAR     64  63  94 CALM      30.09S
KNOXVILLE *    PTCLDY    72  64  78 CALM      30.07S
MARSHALLTOWN   CLEAR     64  61  90 CALM      30.07S
6HR MIN TEMP:  64; 6HR MAX TEMP:  81;

PELLA *        PTCLDY    66  66 100 CALM      30.09S
PERRY *          N/A     68  66  94 CALM      30.08F
$$

IAZ004>006-015-016-023>025-035-036-010700-
   NORTH CENTRAL IOWA

CITY           SKY/WX    TMP DP  RH WIND       PRES   REMARKS
ALGONA *       CLEAR     64  59  82 SW9       30.07S
CLARION *      CLEAR     59  57  94 S6        30.07S
ESTHERVILLE    CLEAR     64  60  87 SW7       30.05F
6HR MIN TEMP:  61; 6HR MAX TEMP:  80;

FORT DODGE *   CLEAR     63  61  94 CALM      30.09S
MASON CITY     CLEAR     60  58  92 CALM      30.07S
6HR MIN TEMP:  60; 6HR MAX TEMP:  79; 6HR PCP: TRACE;

FOREST CITY *  CLEAR     59  59 100 CALM      30.06S
IOWA FALLS *     N/A     63  58  86 SW6       30.08F
$$

IAZ007>011-017>019-026>030-037>042-050>054-066-010700-
   NORTHEAST IOWA

CITY           SKY/WX    TMP DP  RH WIND       PRES   REMARKS
CEDAR RAPIDS   CLEAR     62  61  96 W3        30.06R
6HR MIN TEMP:  62; 6HR MAX TEMP:  79;

CHARLES CITY * CLEAR     61  61 100 CALM      30.07R
CLINTON *      CLEAR     61  57  88 W7        30.07S
DECORAH *      CLEAR     63  59  88 SW3       30.05R
DUBUQUE        CLEAR     62  57  83 S6        30.05S
6HR MIN TEMP:  61; 6HR MAX TEMP:  78;

MONTICELLO *   CLEAR     59  57  94 CALM      30.05F
OELWEIN *        N/A     63  59  88 SW5       30.07S
WATERLOO       CLEAR     63  59  87 CALM      30.05S
6HR MIN TEMP:  62; 6HR MAX TEMP:  79;

$$

IAZ064-065-067-068-078-010700-
   EAST CENTRAL IOWA

CITY           SKY/WX    TMP DP  RH WIND       PRES   REMARKS
DAVENPORT      CLEAR     62  58  86 NW3       30.05S
6HR MIN TEMP:  61; 6HR MAX TEMP:  79;

IOWA CITY      CLEAR     64  60  87 CALM      30.07R
6HR MIN TEMP:  64; 6HR MAX TEMP:  83;

MT. PLEASANT * CLEAR     66  61  83 CALM      30.07S
MUSCATINE *    CLEAR     66  59  77 CALM      30.05S
QUAD CITIES    CLEAR     65  58  78 CALM      30.05R
6HR MIN TEMP:  64; 6HR MAX TEMP:  83;

$$

IAZ062-063-075>077-085>089-095>099-010700-
   SOUTHEAST IOWA

CITY           SKY/WX    TMP DP  RH WIND       PRES   REMARKS
BURLINGTON     CLEAR     66  62  87 CALM      30.06S
6HR MIN TEMP:  65; 6HR MAX TEMP:  84;

FAIRFIELD *    MOCLDY    66  64  94 CALM      30.07S
FORT MADISON * PTCLDY    70  64  83 CALM      30.07S
KEOKUK *       MOCLDY    72  68  88 CALM      30.06S
OSKALOOSA *      N/A     64  63  96 CALM      30.08S
CENTERVILLE *  CLEAR     72  68  88 E5        30.09F
OTTUMWA        PTCLDY    65  64  97 CALM      30.06S
6HR MIN TEMP:  65; 6HR MAX TEMP:  83;

WASHINGTON *   CLEAR     63  61  94 CALM      30.08R
$$

ABBREVIATIONS USED IN REMARKS
   TC - TEMPERATURES IN CELSIUS
  WCI - WIND CHILL INDEX
   HX - HEAT INDEX
  VSB - VISIBILITY
$$




USA.gov is the U.S. government's official web portal to all federal, state and local government web resources and services.